Date String (YYYY-MM-DD hh:mm:ss) UTC,Instrument flags,Ambient pressure (hPa),Sample flow (lpm),Bypass flow (lpm),Sample temperature (°C),Ambient temperature (°C),ASC tube jacket temperature (°C),LED temperature (°C),Box temperature (°C),Sample RH (%),Span deviation,Mass concentration (μg/m³),Mass concentration (μg/m³),Mass concentration (μg/m³)
DateTimeUTC,F1_M11,P_M11,Q1_M11,Q2_M11,T1_M11,T2_M11,T3_M11,T4_M11,T5_M11,U1_M11,ZSPAN_M11,X0_M11,X2_M11,X1_M11
2022-02-20 02:00:00,,0820.3,4.99,0.00,23.7,22.7,00.0,32.8,25.4,07.8,0000.0,0000.84,0000.52,0000.38
2022-02-20 02:01:00,,0820.3,5.01,0.00,23.7,22.7,00.0,32.8,25.4,07.8,0000.0,0000.89,0000.52,0000.38
2022-02-20 02:02:00,,0820.3,4.99,0.00,23.7,22.8,00.0,32.8,25.4,07.9,0000.0,0001.17,0000.49,0000.38
2022-02-20 02:03:00,,0820.4,5.00,0.00,23.7,22.8,00.0,32.8,25.4,07.8,0000.0,0001.23,0000.50,0000.38
2022-02-20 02:04:00,,0820.4,5.02,0.00,23.7,22.8,00.0,32.8,25.4,07.8,0000.0,0001.37,0000.51,0000.39
2022-02-20 02:05:00,,0820.3,5.00,0.00,23.7,22.8,00.0,32.8,25.4,07.6,0000.0,0001.58,0000.53,0000.39
2022-02-20 02:06:00,,0820.3,4.98,0.00,23.7,22.8,00.0,32.8,25.4,07.5,0000.0,0001.65,0000.54,0000.40
2022-02-20 02:07:00,,0820.3,5.02,0.00,23.7,22.9,00.0,32.8,25.4,07.8,0000.0,0001.70,0000.54,0000.40
2022-02-20 02:08:00,,0820.3,4.98,0.00,23.7,22.8,00.0,32.8,25.4,07.5,0000.0,0001.69,0000.53,0000.39
2022-02-20 02:09:00,,0820.4,5.01,0.00,23.7,22.8,00.0,32.8,25.4,07.4,0000.0,0001.64,0000.52,0000.38
2022-02-20 02:10:00,,0820.4,4.99,0.00,23.7,22.8,00.0,32.8,25.4,07.3,0000.0,0001.59,0000.51,0000.39
2022-02-20 02:11:00,,0820.4,4.99,0.00,23.7,22.8,00.0,32.8,25.4,07.1,0000.0,0001.62,0000.51,0000.40
2022-02-20 02:12:00,,0820.3,5.00,0.00,23.7,22.8,00.0,32.8,25.4,07.3,0000.0,0001.55,0000.50,0000.39
2022-02-20 02:13:00,,0820.4,5.01,0.00,23.7,22.8,00.0,32.8,25.3,07.0,0000.0,0001.20,0000.49,0000.39
2022-02-20 02:14:00,,0820.5,5.00,0.00,23.7,22.8,00.0,32.7,25.2,07.0,0000.0,0001.18,0000.49,0000.40
2022-02-20 02:15:00,,0820.4,4.99,0.00,23.7,22.8,00.0,32.7,25.2,07.2,0000.0,0001.06,0000.50,0000.40
2022-02-20 02:16:00,,0820.3,5.01,0.00,23.6,22.7,00.0,32.7,25.2,06.9,0000.0,0000.87,0000.48,0000.40
2022-02-20 02:17:00,,0820.3,5.00,0.00,23.6,22.7,00.0,32.7,25.3,07.0,0000.0,0000.86,0000.49,0000.40
2022-02-20 02:18:00,,0820.3,5.00,0.00,23.6,22.7,00.0,32.7,25.2,06.9,0000.0,0000.83,0000.49,0000.40
2022-02-20 02:19:00,,0820.3,5.02,0.00,23.6,22.7,00.0,32.7,25.2,06.7,0000.0,0000.83,0000.49,0000.40
2022-02-20 02:20:00,,0820.3,4.99,0.00,23.5,22.7,00.0,32.7,25.1,07.0,0000.0,0000.79,0000.49,0000.41
2022-02-20 02:21:00,,0820.3,5.00,0.00,23.5,22.7,00.0,32.7,25.2,06.9,0000.0,0000.81,0000.49,0000.40
2022-02-20 02:22:00,,0820.3,5.00,0.00,23.5,22.7,00.0,32.7,25.1,07.0,0000.0,0000.72,0000.47,0000.39
2022-02-20 02:23:00,,0820.3,5.01,0.00,23.5,22.7,00.0,32.7,25.2,07.1,0000.0,0000.67,0000.46,0000.39
2022-02-20 02:24:00,,0820.2,4.99,0.00,23.5,22.6,00.0,32.6,25.1,07.0,0000.0,0000.72,0000.48,0000.39
2022-02-20 02:25:00,,0820.3,5.01,0.00,23.4,22.6,00.0,32.6,25.1,07.0,0000.0,0000.73,0000.49,0000.40
2022-02-20 02:26:00,,0820.2,4.99,0.00,23.4,22.6,00.0,32.6,25.1,07.2,0000.0,0000.69,0000.47,0000.39
2022-02-20 02:27:00,,0820.3,4.99,0.00,23.4,22.5,00.0,32.6,25.0,07.2,0000.0,0000.76,0000.48,0000.40
2022-02-20 02:28:00,,0820.2,5.01,0.00,23.3,22.5,00.0,32.5,24.9,07.2,0000.0,0000.84,0000.48,0000.39
2022-02-20 02:29:00,,0820.2,5.01,0.00,23.3,22.5,00.0,32.5,24.9,07.2,0000.0,0001.32,0000.48,0000.40
2022-02-20 02:30:00,,0820.2,5.00,0.00,23.3,22.5,00.0,32.5,24.9,07.2,0000.0,0001.83,0000.49,0000.40
2022-02-20 02:31:00,,0820.2,4.99,0.00,23.3,22.4,00.0,32.5,24.9,07.4,0000.0,0002.82,0000.50,0000.40
2022-02-20 02:32:00,,0820.2,5.00,0.00,23.3,22.5,00.0,32.5,24.9,07.2,0000.0,0002.81,0000.50,0000.41
2022-02-20 02:33:00,,0820.3,5.02,0.00,23.3,22.4,00.0,32.5,24.9,07.2,0000.0,0002.80,0000.50,0000.41
2022-02-20 02:34:00,,0820.2,4.99,0.00,23.3,22.4,00.0,32.4,24.9,07.1,0000.0,0002.81,0000.51,0000.42
2022-02-20 02:35:00,,0820.2,4.99,0.00,23.2,22.4,00.0,32.4,24.9,07.2,0000.0,0002.82,0000.51,0000.42
2022-02-20 02:36:00,,0820.2,5.01,0.00,23.2,22.4,00.0,32.4,24.9,07.1,0000.0,0002.79,0000.50,0000.42
2022-02-20 02:37:00,,0820.2,5.01,0.00,23.2,22.4,00.0,32.4,24.9,07.3,0000.0,0002.78,0000.50,0000.42
2022-02-20 02:38:00,,0820.2,4.99,0.00,23.2,22.4,00.0,32.4,24.9,07.2,0000.0,0002.78,0000.49,0000.42
2022-02-20 02:39:00,,0820.1,5.00,0.00,23.2,22.3,00.0,32.4,24.9,07.3,0000.0,0003.13,0000.50,0000.42
2022-02-20 02:40:00,,0820.0,5.00,0.00,23.1,22.3,00.0,32.4,24.9,07.5,0000.0,0003.06,0000.50,0000.42
2022-02-20 02:41:00,,0820.0,5.00,0.00,23.1,22.3,00.0,32.3,24.8,07.3,0000.0,0002.54,0000.49,0000.43
2022-02-20 02:42:00,,0820.1,5.01,0.00,23.1,22.3,00.0,32.3,24.8,07.1,0000.0,0001.30,0000.48,0000.42
2022-02-20 02:43:00,,0820.1,4.99,0.00,23.1,22.3,00.0,32.3,24.8,07.3,0000.0,0001.31,0000.48,0000.42
2022-02-20 02:44:00,,0820.1,4.99,0.00,23.1,22.3,00.0,32.3,24.8,07.3,0000.0,0001.35,0000.50,0000.43
2022-02-20 02:45:00,,0820.0,5.00,0.00,23.1,22.3,00.0,32.3,24.8,07.5,0000.0,0001.33,0000.49,0000.42
2022-02-20 02:46:00,,0820.0,5.00,0.00,23.1,22.3,00.0,32.2,24.7,07.5,0000.0,0001.30,0000.48,0000.42
2022-02-20 02:47:00,,0820.0,4.99,0.00,23.1,22.3,00.0,32.2,24.7,07.5,0000.0,0001.41,0000.51,0000.42
2022-02-20 02:48:00,,0820.0,5.01,0.00,23.1,22.4,00.0,32.2,24.7,07.4,0000.0,0001.52,0000.53,0000.42
2022-02-20 02:49:00,,0819.9,4.99,0.00,23.1,22.3,00.0,32.2,24.8,07.4,0000.0,0001.69,0000.54,0000.42
2022-02-20 02:50:00,,0819.9,4.99,0.00,23.1,22.3,00.0,32.2,24.7,07.6,0000.0,0001.09,0000.52,0000.42
2022-02-20 02:51:00,,0819.9,5.00,0.00,23.1,22.3,00.0,32.2,24.8,07.4,0000.0,0000.97,0000.51,0000.42
2022-02-20 02:52:00,,0819.9,5.02,0.00,23.1,22.3,00.0,32.2,24.8,07.6,0000.0,0000.94,0000.50,0000.42
2022-02-20 02:53:00,,0819.9,5.01,0.00,23.1,22.3,00.0,32.2,24.7,07.7,0000.0,0000.96,0000.52,0000.42
2022-02-20 02:54:00,,0819.9,5.00,0.00,23.1,22.3,00.0,32.2,24.7,07.6,0000.0,0000.99,0000.54,0000.43
2022-02-20 02:55:00,,0819.9,4.99,0.00,23.1,22.3,00.0,32.2,24.7,07.6,0000.0,0000.98,0000.53,0000.43
2022-02-20 02:56:00,,0819.9,5.00,0.00,23.1,22.3,00.0,32.2,24.7,07.3,0000.0,0001.06,0000.56,0000.43
2022-02-20 02:57:00,,0819.9,5.02,0.00,23.1,22.4,00.0,32.2,24.8,07.4,0000.0,0001.05,0000.56,0000.44
2022-02-20 02:58:00,,0819.9,4.99,0.00,23.1,22.4,00.0,32.2,24.8,07.6,0000.0,0001.39,0000.53,0000.44
2022-02-20 02:59:00,,0819.9,4.99,0.00,23.1,22.3,00.0,32.2,24.8,07.3,0000.0,0002.24,0000.52,0000.45
